Showing default

SUPERVIEW NEO 3-02, 63208

Orbit data source: Space-Track

SUPERVIEW NEO 3-02, 63208 is a payload satellite owned by Siwei (CN) in SSO that was launched on Sat, 15 Mar 2025 UTC via a CHANG ZHENG 2D launch vehicle from the Jiuquan Satellite Launch Center, China (JSC). Payload-class satellites include a variety of spacecraft equipped with specific instruments for various scientific and technological missions. These include communications satellites like Starlink; space stations such as the ISS; scientific satellites like the Hubble; Earth observation satellites from companies like Planet Labs, Umbra, and HawkEye 360; GPS; miniature CubeSats for education and research; and military/defense satellites.

Loading next visibility...
Identifier
63208, 2025-051A
Orbit
SSO
Country
Flag of CNCN / PRC
Related business
Manufacturer
SAST
Mission
Operational Commercial Imaging
Bus & Motor
SIWEI, Unknown motor
Mass
~1,000 kg wet, ~700 kg dry
Launch date (UTC)
2025-03-15 (9 months ago)
Launch vehicle
CHANG ZHENG 2D
Launch site
Jiuquan Satellite Launch Center, China (JSC)
Object type
Payload
Rocket body
Debris
Shape & HBR
Box, 3.0 m
Radar Cross Section
0.375 m², Large (>1 m²)

Expand to show TLE details & history
Last TLE update: 7 hours ago

TLE from 7 hours ago
0 SUPERVIEW NEO 3-02
1 63208U 25051A   25347.00709685  .00018076  00000-0  75101-3 0  9997
2 63208  97.4710  62.3905 0002372  95.7485 264.4023 15.23865399 41496
Epoch: 2025-12-13T00:10Z
TLE epoch observation values (Epoch: 2025-12-13T00:10:13.167Z)
Latitude
Longitude
-22.10492°
Altitude
497.448 km
Speed
7.616 km/s
True Right ascension
04h 09m 33s
True Declination
0° 00' 00"
Sunlit
Object was in full shadow at epoch
Visualization orbit readout
Latitude
Unknown
Longitude
Unknown
Altitude
Unknown
Speed
Unknown
Apparent Right ascension
Unknown
Apparent Declination
Unknown
Sunlit
N/A
Visualization observer readout
Local Sidereal Time
05:23:37
Azimuth
Unknown
Elevation
Unknown
Doppler factor
Unknown
Orbital elements
Apogee altitude
492.787 km
Perigee altitude
489.529 km
Semi-major axis
6,869.295 km
Eccentricity
0.00024
Inclination
97.471°
RAAN
62.3905°
Arg. of periapsis
95.7485°
True anomaly
264.37525°
Mean anomaly
264.4023°
Eccentric anomaly
264.38877°
Mean motion
3.81219 °/min
Orbital period
94.43 mins
BSTAR
0.00075101
Loading maneuver chart data...
Computing Atmospheric mass density...
Loading historical data...
Loading historical data...
Loading historical data...
Loading historical data...
Loading historical data...
Loading historical data...
Loading historical data...
Other satellites on launch #51 in the year 2025 (2025-03-15 UTC)

Documentation

Showing up to 5 results
|